STARLINK-2319, 47790

Orbit data source: Space-Track

STARLINK-2319, 47790 is a payload satellite owned by SpaceX/Seattle (US) in LEO that was launched on Thu, 11 Mar 2021 UTC via an FALCON 9 launch vehicle from the Air Force Eastern Test Range (AFETR). Payload-class satellites include a variety of spacecraft equipped with specific instruments for various scientific and technological missions. These include communications satellites like Starlink; space stations such as the ISS; scientific satellites like the Hubble; Earth observation satellites from companies like Planet Labs, Umbra, and HawkEye 360; GPS; miniature CubeSats for education and research; and military/defense satellites.

Loading next visibility...
Identifier
47790, 2021-018D
Orbit
LEO
Country
Flag of USUS
Related business
Manufacturer
SpaceX/Seattle
Mission
Operational Commercial Communications
Bus & Motor
STARLINK, Unknown motor
Mass
260 kg wet, ~248 kg dry
Launch date (UTC)
2021-03-11 (5 years ago)
Launch vehicle
FALCON 9
Launch site
Air Force Eastern Test Range (AFETR)
Object type
Payload
Rocket body
Debris
Shape & HBR
Box + 1 Pan, 10.1 m
Radar Cross Section
13.562 m², Large (>1 m²)

Expand to show TLE details & history
Last TLE update: 15 hours ago

TLE from 15 hours ago
0 STARLINK-2319
1 47790U 21018D   26247.97545273 -.00000110  00000-0  82085-5 0  9993
2 47790  53.1593 102.3524 0001244  83.3677 276.7466 15.31695600304570
Epoch: 2026-09-04T23:24Z
TLE epoch observation values (Epoch: 2026-09-04T23:24:39.115Z)
Latitude
-0.00004°
Longitude
127.09783°
Altitude
471.553 km
Speed
7.632 km/s
True Right ascension
06h 49m 24s
True Declination
0° 00' 00"
Sunlit
Object was in daylight at epoch
Visualization orbit readout
Latitude
Unknown
Longitude
Unknown
Altitude
Unknown
Speed
Unknown
Apparent Right ascension
Unknown
Apparent Declination
Unknown
Sunlit
N/A
Visualization observer readout
Local Sidereal Time
06:19:29
Azimuth
Unknown
Elevation
Unknown
Doppler factor
Unknown
Orbital elements
Apogee altitude
471.862 km
Perigee altitude
470.158 km
Semi-major axis
6,849.147 km
Eccentricity
0.00012
Inclination
53.1593°
RAAN
102.3524°
Arg. of periapsis
83.3677°
True anomaly
276.73244°
Mean anomaly
276.7466°
Eccentric anomaly
276.73952°
Mean motion
3.82903 °/min
Orbital period
94.02 mins
BSTAR
0.0000082085
Loading maneuver chart data...
Computing Atmospheric mass density...
Loading historical data...
Loading historical data...
Loading historical data...
Loading historical data...
Loading historical data...
Loading historical data...
Loading historical data...

Documentation

Showing up to 5 results
|